Powrót do katalogu

STARLINK-32239

AktywnyŁącznośćVLEO
NORAD 61892·PAYLOAD·🇺🇸 United States

Wystrzelony Nov 9, 2024 z Vandenberg Space Force Base

Loading…

Następne Przeloty (najbliższe 24 godziny)

TLE

ŚwieżeSource: CelesTrak SupGP

Epoka: Sep 14, 2026, 15:20 UTC

1 61892C 24204U   26257.63937500  .00013136  00000+0  38841-3 0  2570
2 61892  53.1588 326.8111 0001322  83.9040 274.1287 15.34360414    15

Śledź STARLINK-32239 w czasie rzeczywistym z AllMySat

Download on the App Store